H-2A R/B (38341 NORAD) Tracking and Keplerian Element Data

This shows tracking and keplerian element data for the satellite.

Feedback or suggestion? Click here.




ElementValue
Catalog38341
NameH-2A R/B
Epoch Orbit46959
Epoch Day20.74963842
Epoch Year2021
RAAN196.1735
Inclination98.518
Eccentricity0.0054352
Argument of Perigee253.5977
Mean Anonmoly105.9257
Mean Motion14.84151289
Decay Rate1.99E-06
L11 38341U 12025E 21020.74963842 .00000199 00000-0 30942-4 0 9998
L22 38341 98.5180 196.1735 0054352 253.5977 105.9257 14.84151289469596

Live tracking and technical data element details for H-2A R/B (NORAD 38341). H-2A R/B can be tracked NOW for your location showing map with azimuth and elevation plus other details from your city location.

Track the satellite on the map from your city or location and see movement details for azimuth, elevation, latitude, longitude, range, height, and movement on the map or in text.







IsCatalogInMostPopularTable: catalog: 38341, numindb: 530
Update: records affected: 1



GetName: 38341 H-2A R/B

Hit Count: updated at: Sat, 23 Jan 2021 04:29:27 GMT